Location: Newark
(39.0083°N, 20.7336°E)
Time: 14:40:06
(UTC+00:00)

Nauka - Pass Details

Date: 27 September 2021
Orbit: 418 x 423 km, 51.6° (Epoch: 18 October)

Event Time Altitude Azimuth Distance (km) Brightness Sun altitude
Rises 18:12:20 0° 315° (NW) 2,366 ? -21.3°
Reaches altitude 10° 18:15:30 10° 348° (NNW) 1,502 ? -21.9°
Enters shadow 18:16:40 12° 8° (N) 1,376 ? -22.1°
